Regional Weather Roundup
Issued by NWS Green Bay, WI

Home | Current Version | Previous Version | Graphics & Text | Print | Product List | Glossary Off
Versions: 1 2 3 4 5 6 7 8 9 10 11 12 13 14 15 16 17 18 19 20 21 22 23 24 25 26 27 28 29 30 31 32 33 34 35 36 37 38 39 40 41 42 43 44 45 46 47 48 49 50

000
ASUS43 KGRB 261211
RWRGRB

NORTH-CENTRAL AND NORTHEAST WISCONSIN REGIONAL WEATHER ROUNDUP
NATIONAL WEATHER SERVICE GREEN BAY WI
600 AM CST SUN FEB 26 2017

WIZ005-009-010>012-018-019-261300-
NORTH CENTRAL WISCONSIN

CITY           SKY/WX    TMP DP  RH WIND       PRES   REMARKS
IRONWOOD       LGT SNOW  21  16  81 SW12      29.66F WCI   9
MANITOWISH WTR FLURRIES  19  18  94 S12       29.66F WCI   7
ARBOR VITAE    LGT SNOW  19  16  86 S9          N/A  WCI   8
EAGLE RIVER    LGT SNOW  18  13  81 SW8       29.68F WCI   8
LAND O LAKES   LGT SNOW  18  15  87 S8        29.68F WCI   8
RHINELANDER    CLOUDY    20  15  81 SW12G21   29.70F WCI   8
PHILLIPS       LGT SNOW  20  16  86 S8        29.68F
ANTIGO         CLOUDY    19  15  87 SW12      29.74F WCI   6
TOMAHAWK       CLOUDY    19  15  83 CALM      29.72F
MERRILL        NOT AVBL
$$

WIZ013-073-261300-
NORTHEAST WISCONSIN

CITY           SKY/WX    TMP DP  RH WIND       PRES   REMARKS
IRON MOUNTAIN  MOCLDY    16   9  74 SE6       29.73F WCI   7
MARINETTE      FLURRIES  21  17  84 SW13      29.84F WCI   9
OCONTO         CLOUDY    21  16  83 S7        29.85F
$$

WIZ017-030-035>037-045-261300-
CENTRAL WISCONSIN

CITY           SKY/WX    TMP DP  RH WIND       PRES   REMARKS
MEDFORD        CLOUDY    21  15  76 S12       29.72S WCI   9
WAUSAU         CLOUDY    22  15  75 S9        29.75F
MOSINEE        CLOUDY    21  18  86 S10G17    29.77F
MARSHFIELD     CLOUDY    21  14  74 S9        29.75F
WISC RAPIDS    CLOUDY    22  18  85 S9        29.80F
STEVENS POINT  CLOUDY    20  17  86 S8        29.79F
WAUPACA        PTCLDY    22  18  82 S8        29.84F
SHAWANO        FLURRIES  22  18  82 S3        29.83F
CLINTONVILLE   FLURRIES  23  18  80 S10       29.83F
WAUTOMA        CLOUDY    21  17  84 S6        29.84F
$$

WIZ038-039-048-051-261300-
FOX VALLEY

CITY           SKY/WX    TMP DP  RH WIND       PRES   REMARKS
NWS GREEN BAY  CLOUDY    22  17  81 S9        29.86F
APPLETON       FLURRIES  21  14  73 S12       29.84F WCI   9
OSHKOSH        CLOUDY    23  16  74 S16       29.86F WCI  10
FOND DU LAC    CLOUDY    23  15  71 S12       29.88F
$$

WIZ022-050-052-261300-
EAST CENTRAL WISCONSIN

CITY           SKY/WX    TMP DP  RH WIND       PRES   REMARKS
EPHRAIM        CLOUDY    22  18  87 SW6       29.83F
WASHINGTON ISL CLOUDY    24  19  80 SW14      29.83F
STURGEON BAY   CLOUDY    21  17  84 SW10      29.86F WCI  10
MANITOWOC      CLOUDY    22  15  75 S8        29.91F
SHEBOYGAN      CLOUDY    21  14  74 S9        29.91F
$$

LMZ563-521-522-541>543-261300-
LAKESHORE

STATION/POSITION TIME  TEMP    WIND        PRES    VSBY  WAVE
                       AIR SEA DIR/SP/G                  HT/PER
                 (UTC) (F)     (DEG/KT/KT) (MB)    (MI)  (FT/S)
SHEBOYGAN LKSHOR 1200   23     210/ 10/ 12 1014.2F
KEWAUNEE LKSHORE 1148   24     200/  8/ 10 1011.7F
NORTHPORT PIER   1120   23      CALM  /  1 1011.2F
SISTER BAY LKSHO 1105   23        CALM       N/A
MENOMINEE LKSHOR 1148   22     200/  7/ 11 1009.9F
$$



USA.gov is the U.S. government's official web portal to all federal, state and local government web resources and services.